Simultaneous Nadir Overpasses (SNOs) Predictions

Prediction of SNOs between GOES-15 and NOAA-19 Satellite Orbit:

Table of predicted SNOs for the next 14.0 days since TLE Epoch: 11/28/2025
Index Date Time (GOES-15) GOES-15 Lat,Lon NOAA-19 Lat,Lon Distance(km) Time Diff (sec)
1 11/29/2025 06:00:02 0.54, 61.52 0.87, 60.17 154.58 80
2 11/30/2025 05:50:00 0.56, 61.51 0.16, 63.25 198.85 80
3 12/02/2025 18:05:48 -0.49, 61.55 -1.14, 58.83 310.42 80
4 12/03/2025 17:55:47 -0.51, 61.54 -0.44, 61.91 41.91 80
5 12/04/2025 17:43:05 -0.53, 61.54 0.26, 64.99 394.13 80
6 12/06/2025 06:11:35 0.44, 61.47 1.35, 57.48 454.79 80
7 12/07/2025 05:58:52 0.47, 61.47 0.69, 60.57 102.12 80
8 12/08/2025 05:48:51 0.49, 61.46 -0.03, 63.65 250.37 80
9 12/10/2025 18:04:39 -0.43, 61.51 -0.97, 59.23 259.88 80
10 12/11/2025 17:54:38 -0.45, 61.50 -0.27, 62.31 92.24 80
11 12/12/2025 17:41:57 -0.47, 61.50 0.43, 65.39 444.41 80
